sat.trackr.live / text

‹ back to catalog

STARLINK-3302

NORAD 50842 · 2022-001AR

PAYLOAD ACTIVE UNKNOWN

§ Identity

Operator
Country
US
Launch date
2022-01-06
Launch site
AFETR
Launch vehicle
Mass (kg)
RCS (m²)

Purposes: comms

External: N2YO · Heavens-Above · Gunter

§ Orbital elements

Epoch: 2026-09-20T00:29:40.278048Z

Period
94.01 min
Inclination
53.1617°
Eccentricity
0.0001040
Mean motion
15.31676168 rev/d
Perigee alt
470.1 km
Apogee alt
471.5 km
Semi-major
6,848.9 km
B*
-5.9968e-5
RAAN
12.0225°
Arg perigee
80.8867°
Mean anomaly
279.2252°
Rev number
25,979

§ Raw data

STARLINK-33021 50842U 22001AR  26263.02060507 -.00002224  00000+0 -59968-4 0  99952 50842  53.1617  12.0225 0001040  80.8867 279.2252 15.31676168259793

JSON: /api/v1/satellites/50842 · /tle

For live sub-satellite position, see the globe view (requires WebGL).

§ Visibility from observer

Set your observer location to see the next 7 days of passes ≥ 10°. The values pass through the URL so the page stays shareable.

No JS? Fill the form by hand. The geolocation button needs JavaScript.